sat.trackr.live / text

‹ back to catalog

STARLINK-2405

NORAD 47919 · 2021-021BM

PAYLOAD ACTIVE UNKNOWN

§ Identity

Operator
Country
US
Launch date
2021-03-14
Launch site
AFETR
Launch vehicle
Mass (kg)
RCS (m²)

Purposes: comms

External: N2YO · Heavens-Above · Gunter

§ Orbital elements

Epoch: 2026-05-25T02:52:06.078720Z

Period
94.01 min
Inclination
53.1591°
Eccentricity
0.0001205
Mean motion
15.31709030 rev/d
Perigee alt
469.9 km
Apogee alt
471.5 km
Semi-major
6,848.9 km
B*
2.0748e-4
RAAN
285.4838°
Arg perigee
101.2295°
Mean anomaly
258.8842°
Rev number
28,775

§ Raw data

STARLINK-24051 47919U 21021BM  26145.11951480  .00006080  00000+0  20748-3 0  99902 47919  53.1591 285.4838 0001205 101.2295 258.8842 15.31709030287757

JSON: /api/v1/satellites/47919 · /tle

For live sub-satellite position, see the globe view (requires WebGL).

§ Visibility from observer

Set your observer location to see the next 7 days of passes ≥ 10°. The values pass through the URL so the page stays shareable.

No JS? Fill the form by hand. The geolocation button needs JavaScript.